Location: Chandrammap?lem
(16.9200°N, 81.0051°E)
Time: 01:43:40
(UTC+00:00)

MOS 1-B Rocket - Pass Details

Date: 29 May 2024
Orbit: 890 x 1605 km, 99.0° (Epoch: 16 June)

Event Time Altitude Azimuth Distance (km) Brightness Sun altitude
Exits shadow 14:54:43 39° 145° (SE) 1,905 5.0 -23.9°
Maximum altitude 14:57:53 68° 76° (ENE) 1,361 4.5 -24.6°
Drops below altitude 10° 15:04:46 10° 355° (N) 3,017 7.0 -25.9°
Sets 15:07:10 0° 353° (N) 3,891 7.7 -26.4°
